{"data":{"norad_id":43435,"intl_designator":"2018-038A","name":"TESS","alt_names":[],"object_type":"PAYLOAD","status":"ACTIVE","operator":null,"country":"US","launch_date":"2018-04-18","launch_site_code":"AFETR","launch_vehicle":null,"mission":null,"orbit_class":"UNKNOWN","rcs_meters":null,"size_class":null,"mass_kg":null,"dimensions":null,"purposes":[],"wikipedia_slug":null,"has_3d_model":false,"image_url":null,"decayed_at":null,"tle_current":{"epoch":"2026-09-21T14:50:11.752512Z","epoch_age_seconds":-42035,"freshness":"FRESH","line1":"1 43435U 18038A   26264.61819158 -.00000879  00000+0  00000+0 0  9991","line2":"2 43435  56.2338  32.1610 4943752  64.1731  11.1423  0.07023037  1923","mean_motion":0.07023037,"eccentricity":0.4943752,"inclination_deg":56.2338,"raan_deg":32.161,"arg_perigee_deg":64.1731,"mean_anomaly_deg":11.1423,"bstar":0,"rev_number":192,"period_min":20503.950071742,"perigee_km":119093.88714554,"apogee_km":364454.70422317,"semimajor_km":248152.43268435,"source":"CELESTRAK","updated_at":"2026-09-20T09:00:14.320612Z"}}}